Temp_Advection
nan nan nan nan nan nan nan nan nan nan nan nan nan nan nan nan nan nan nan nan nan nan nan nan nan nan nan nan nan nan nan nan nan nan nan nan nan nan nan nan nan nan nan
nan 1 0 0 0 0 0 0 0 0 0 0 0 0 0 0 -0 0 0 0 0 0 0 1 0 -0 -0 1 1 0 -0 1 1 0 0 1 0 -0 -0 -0 0 1 nan
nan 0 0 0 -0 0 0 0 0 0 1 1 0 0 0 0 0 0 0 0 -0 -0 1 1 -0 0 0 -0 0 1 1 -0 -0 1 1 0 -1 -1 -0 0 0 1 nan
nan 0 0 -0 -0 0 0 0 0 0 0 0 0 0 0 0 1 1 0 -0 -0 -0 -0 -0 0 1 0 0 0 -0 1 1 1 1 0 -1 -0 0 -0 -0 1 2 nan
nan 0 0 0 0 0 0 0 0 0 0 -0 0 0 0 0 0 0 0 0 0 -0 -0 -0 -0 0 0 1 0 0 0 0 0 0 1 1 1 0 -0 -0 0 1 nan
nan 0 0 0 0 0 0 0 0 -0 -0 -0 0 0 0 0 0 0 0 0 0 0 0 0 -0 0 0 0 -0 0 -0 0 0 0 0 0 1 1 1 0 0 1 nan
nan 0 0 0 0 -0 -0 -0 0 0 -0 0 -0 -0 -0 0 0 0 0 0 0 0 0 0 0 0 0 0 0 0 -0 -0 -0 0 0 -0 0 0 1 1 0 0 nan
nan 0 0 0 0 -0 -0 -0 0 -0 -0 0 0 -0 -0 -0 -0 -0 -0 0 0 0 0 0 0 0 0 0 -0 0 0 -0 -0 -0 -0 0 0 -0 0 1 2 1 nan
nan 0 0 0 0 0 -0 0 0 0 0 0 -0 -0 -0 -0 -0 -0 -0 -0 -0 0 0 0 0 0 0 1 1 0 0 -0 -0 -0 -0 -0 -0 0 1 1 1 1 nan
nan 0 0 0 0 0 0 -0 -0 -0 0 -0 -0 -0 -0 -0 -0 -0 -0 -0 -0 -0 -0 0 0 0 0 0 0 1 2 1 -0 -0 -0 -1 -0 -1 -0 0 1 2 nan
nan 0 0 0 0 0 0 0 -0 0 -0 -0 -0 -0 -0 -0 -0 -0 -0 -0 -0 -0 -0 -0 0 -0 -0 -0 0 0 1 1 -0 -0 -0 -0 -0 -0 -0 1 1 1 nan
nan 0 0 0 0 0 0 0 -0 -0 -0 -0 -0 -0 -0 -0 -0 -0 -0 -0 -0 -0 -0 -0 -0 -0 -0 0 0 0 -0 -0 -0 -0 -0 -0 0 0 -0 0 1 0 nan
nan 0 0 0 0 0 0 -0 0 -0 -0 -0 -0 -0 -0 0 0 -0 0 -0 -0 -0 -0 -0 -0 -0 -0 -0 -0 -0 0 -0 -0 -0 0 0 0 0 -0 -0 1 0 nan
nan 0 0 0 0 0 0 0 0 0 -0 -0 -0 -0 -0 0 0 0 0 -0 -0 -0 -0 -0 -0 -0 -0 -0 -0 -0 -0 -0 -0 0 0 0 0 0 -0 0 0 0 nan
nan 0 0 0 0 0 0 0 0 0 0 -0 0 0 -0 -0 -0 0 0 -0 0 -0 -0 -0 -0 -0 -0 -1 -0 -0 -0 -0 -0 -0 -0 0 0 0 0 0 0 0 nan
nan 0 0 0 0 0 0 -0 0 0 -0 0 -0 -0 0 0 0 0 0 0 0 -0 -0 0 0 -0 -1 -0 -0 -0 -0 -0 -0 -0 -0 -0 -0 -0 0 0 0 0 nan
nan 1 1 1 0 0 0 0 0 0 0 -0 -0 0 0 0 0 0 0 -0 0 0 0 0 -0 -0 -0 -0 -0 -0 -0 -0 -0 -0 -0 0 0 0 0 0 0 -0 nan
nan 1 1 0 0 0 0 0 0 -0 -0 0 0 0 0 0 0 0 -0 0 0 0 0 -0 -0 -0 -0 -0 -0 -0 -0 -0 -0 -0 -0 -0 -0 -0 -0 0 0 0 nan
nan 0 1 0 0 0 0 0 -0 -0 0 0 0 0 0 -0 0 -0 -0 -0 0 0 -0 -0 -0 0 -0 -0 -0 -0 -0 -0 -0 -0 -0 -0 -0 -0 -0 -0 -0 0 nan
nan 1 1 0 0 0 0 0 0 0 0 0 0 0 0 0 -0 0 -0 0 0 0 -0 -0 -0 -0 -0 -0 -0 -0 -0 -0 -0 -0 -0 -0 -0 -0 -0 -0 0 0 nan
nan 0 0 0 0 0 0 0 -0 0 0 0 0 0 0 0 0 0 0 -0 -0 0 -0 -0 -0 -0 -0 -0 -0 -0 -0 -0 -0 -0 -0 -0 -0 -0 -0 -0 0 0 nan
nan 0 0 0 0 -0 -0 -0 0 0 0 0 0 0 -0 0 0 0 0 -0 -0 -0 -0 -0 -0 -0 -0 -0 -0 -0 -0 -0 -0 -0 -0 -0 -0 -0 -0 -0 -0 -0 nan
nan 0 -0 0 -0 -0 -0 0 -0 0 0 0 -0 -0 -0 -0 -0 0 0 0 -0 -0 -0 -0 -0 -0 -0 -0 -0 -0 -0 -0 -0 0 0 0 0 -0 -0 0 -0 -0 nan
nan 0 0 0 -0 -0 0 -0 -0 -0 -0 0 -0 -0 -0 -0 -0 -0 0 0 0 0 0 0 0 0 0 -0 -0 0 0 0 0 0 0 0 0 0 0 0 -0 -0 nan
nan 0 0 0 -0 -0 -0 -0 0 -0 -0 -0 -0 -0 -0 -0 -0 0 0 -0 0 0 0 0 0 0 0 0 -0 -0 0 0 0 0 0 0 0 0 0 -0 0 -0 nan
nan nan nan nan nan nan nan nan nan nan nan nan nan nan nan nan nan nan nan nan nan nan nan nan nan nan nan nan nan nan nan nan nan nan nan nan nan nan nan nan nan nan nan
Wind_Speed
12 15 16 18 19 19 20 23 24 20 16 19 21 20 23 23 24 24 24 27 26 25 27 28 27 27 30 30 28 29 30 29 29 28 29 32 30 31 33 31 32 32 30
7 10 14 17 21 23 20 21 22 24 23 21 20 24 26 26 27 27 27 26 26 30 30 30 32 32 32 31 30 31 33 34 32 32 31 26 33 36 38 36 35 35 34
7 7 8 10 11 15 21 25 27 28 29 30 28 28 29 32 29 25 26 28 27 26 29 34 33 33 34 34 32 33 35 38 38 38 30 16 23 25 33 38 40 39 37
9 8 6 8 9 10 11 13 19 25 26 27 28 28 27 28 28 21 20 20 21 22 19 19 22 28 34 35 35 34 35 36 40 39 41 42 29 18 13 23 29 37 37
9 7 6 6 3 3 2 3 4 5 8 14 23 30 31 29 27 24 19 13 16 19 22 25 23 22 22 31 34 35 34 36 38 41 41 42 47 37 27 24 27 26 34
12 6 6 4 2 2 3 4 4 5 5 6 7 10 12 16 19 25 29 26 18 18 19 19 22 24 21 22 24 29 33 36 36 39 41 43 42 45 45 35 31 27 31
13 11 10 7 5 6 7 6 6 8 9 9 10 10 10 12 13 15 18 22 20 21 23 23 22 22 20 19 20 23 27 30 33 36 39 41 40 45 41 39 37 32 34
14 10 7 7 8 9 9 9 9 10 12 12 12 12 12 13 13 13 14 17 23 24 22 22 21 20 21 18 20 18 19 22 26 30 33 35 35 37 41 44 40 36 34
12 9 7 8 9 10 9 8 8 9 11 11 12 13 13 14 15 15 15 16 17 19 22 26 26 26 25 22 23 21 20 20 23 26 28 30 31 33 35 38 38 40 27
11 9 8 7 8 7 7 7 8 8 8 9 10 11 12 12 12 13 13 14 15 17 19 20 22 24 25 26 27 29 28 25 22 24 24 27 28 30 31 31 33 35 35
14 10 8 7 6 6 6 5 5 4 5 5 6 7 9 10 11 12 13 14 15 16 17 17 18 18 19 20 21 20 18 17 18 19 21 24 24 25 25 24 26 26 24
12 9 7 7 6 7 6 5 5 5 5 5 6 7 9 10 11 11 12 12 14 15 16 16 16 17 18 19 19 19 16 14 15 16 18 18 19 19 20 18 21 17 15
11 9 7 7 8 8 8 7 5 5 5 5 5 5 6 6 7 7 9 9 8 8 8 9 10 11 11 11 10 11 13 14 14 14 15 15 14 14 11 13 10 7 6
12 11 10 10 10 9 8 8 6 6 6 5 5 5 5 5 6 5 3 4 4 3 5 6 5 4 5 8 9 8 6 7 7 9 8 9 7 4 2 3 4 5 5
15 14 12 12 11 10 9 8 6 6 6 7 6 6 6 5 4 3 2 1 1 3 4 5 7 10 10 11 9 7 5 3 2 1 1 1 3 3 2 3 5 5 5
14 13 13 13 13 13 10 10 8 7 7 7 6 6 5 3 1 3 4 6 8 10 12 13 14 12 14 14 14 11 8 6 4 3 2 0 2 4 3 5 7 6 4
14 15 14 15 15 12 12 10 9 8 9 8 7 4 3 3 4 6 8 10 12 11 12 13 12 12 13 12 11 9 6 5 3 2 1 1 2 4 4 5 3 3 5
13 13 14 15 14 13 12 10 10 9 9 7 5 4 5 7 9 11 12 12 12 11 12 13 12 10 12 9 8 7 4 3 2 2 2 3 3 4 6 7 7 7 8
10 11 14 14 13 12 11 11 10 9 7 6 7 7 8 10 11 13 13 12 11 10 9 11 11 10 9 7 6 5 4 4 4 4 5 5 6 7 8 8 8 8 7
8 10 12 13 13 12 13 11 9 7 8 9 10 10 11 13 14 13 12 9 8 8 9 9 7 7 7 6 7 7 8 8 9 9 8 8 7 8 10 9 8 8 8
10 11 12 14 16 15 13 11 9 8 10 11 12 13 14 13 11 11 10 8 7 6 6 6 6 6 6 7 7 7 8 8 8 9 9 9 9 9 9 9 6 4 6
10 10 10 12 13 12 11 12 10 11 12 13 14 14 13 11 11 9 8 6 5 3 3 4 5 6 7 8 8 9 8 9 8 9 9 8 7 7 5 3 2 3 4
11 11 10 11 12 11 10 10 12 15 16 16 15 13 12 11 9 7 5 3 1 1 3 4 5 6 6 7 10 11 12 12 11 10 11 10 8 5 3 2 3 4 4
12 10 10 12 12 9 11 12 15 18 17 16 14 13 12 10 9 7 5 2 1 2 3 5 6 7 7 9 11 10 11 11 11 10 9 7 5 4 3 3 5 6 7
13 12 11 13 14 13 14 16 18 17 17 16 14 13 12 10 8 6 5 3 3 4 4 6 7 8 9 9 10 10 11 10 10 9 7 6 5 4 5 6 8 9 10
17 15 13 13 14 14 17 19 20 18 17 16 16 14 12 11 9 7 6 5 5 5 5 7 7 8 8 8 9 11 11 11 10 9 7 6 6 6 8 9 10 11 12
Wind_Direction
228 228 236 231 228 230 224 231 233 231 240 254 254 255 259 255 248 251 252 256 258 256 255 264 267 262 255 256 256 256 256 250 250 245 253 254 255 253 254 251 248 249 253
188 194 207 215 227 234 234 227 225 226 229 227 239 256 259 259 263 266 269 264 259 257 260 252 257 263 263 262 258 254 256 258 250 240 247 247 248 253 253 252 250 248 251
181 190 228 244 252 253 252 246 242 241 240 242 241 241 248 256 258 257 258 267 274 270 261 258 260 261 262 263 262 262 257 259 259 243 232 228 236 252 258 255 253 250 246
178 184 203 251 272 265 255 249 245 242 242 243 242 244 243 249 258 263 263 271 283 282 277 272 268 262 258 257 260 265 263 256 258 259 243 238 252 249 255 257 250 245 246
182 191 230 247 214 201 198 201 221 221 232 241 245 247 250 252 252 252 259 268 271 276 278 283 281 270 268 262 262 262 263 265 263 261 263 254 243 245 252 260 257 245 239
155 159 157 166 224 245 220 206 209 245 251 249 249 249 251 255 258 253 253 255 257 260 270 271 275 280 274 273 269 264 265 269 269 270 269 266 253 251 247 249 253 247 239
154 157 169 181 225 252 254 252 246 246 257 262 264 261 261 262 264 261 252 248 248 250 253 261 268 274 277 272 274 272 265 261 264 268 270 271 272 261 264 255 252 251 245
170 182 202 216 242 263 275 274 266 257 262 267 267 264 264 265 268 267 266 260 255 256 259 257 258 267 267 273 282 276 274 273 272 271 275 281 281 279 270 264 255 250 249
166 186 214 241 263 275 280 279 270 263 266 271 269 267 265 264 263 265 267 265 263 263 264 262 262 265 269 266 270 275 278 271 265 266 267 278 279 280 277 260 260 259 248
175 197 231 256 273 276 278 276 273 273 268 267 273 279 279 276 272 268 265 266 267 266 265 265 265 267 267 266 268 271 274 270 274 274 275 275 275 276 270 270 265 260 254
184 210 233 258 264 269 269 266 262 255 250 260 270 282 287 285 281 277 274 272 271 270 269 269 270 274 279 281 280 281 281 283 281 281 277 277 274 276 276 272 270 266 262
194 214 229 242 248 258 257 248 246 249 254 263 273 287 291 287 282 281 280 279 277 277 276 277 280 283 286 289 295 297 294 284 279 274 272 271 272 272 270 275 282 276 259
204 212 217 229 250 253 249 247 250 255 261 269 283 297 297 284 277 286 289 282 289 290 288 288 293 293 294 300 299 303 296 285 275 270 268 266 268 271 271 283 274 271 252
211 211 214 232 250 246 243 249 253 257 264 269 277 288 291 282 276 280 316 328 332 350 339 328 322 322 338 333 324 302 290 294 279 262 255 251 263 261 273 266 249 242 249
196 208 216 224 236 243 244 247 253 254 260 262 270 287 297 285 281 263 247 274 81 76 74 67 60 50 42 37 32 33 46 37 357 288 333 256 217 201 226 235 229 230 241
208 217 223 216 228 240 241 245 251 255 260 259 269 288 283 275 184 124 121 121 109 92 83 72 66 67 69 64 64 61 56 65 69 66 79 10 300 304 276 257 257 260 278
223 228 229 225 230 236 241 243 248 251 253 257 267 259 202 145 135 126 124 112 101 91 85 81 78 81 84 76 71 71 59 57 55 52 53 256 267 277 297 306 310 295 280
227 225 222 223 228 237 236 237 244 251 245 242 233 196 141 137 132 125 118 110 102 99 94 88 79 68 70 62 55 48 37 21 22 22 7 348 326 314 292 287 278 275 275
224 221 223 225 227 226 233 240 248 245 231 206 180 150 143 140 132 127 119 111 107 101 96 89 81 72 67 55 32 17 6 355 349 340 328 315 305 300 295 296 289 289 286
232 225 220 226 226 225 234 243 250 230 197 173 157 148 144 136 131 127 121 116 110 99 85 82 70 49 33 25 12 1 349 340 338 337 336 333 325 310 307 306 295 284 287
212 216 219 223 220 222 230 237 242 204 179 168 161 152 145 143 136 134 130 123 111 96 78 56 41 27 14 4 358 351 344 340 337 335 336 333 332 323 317 313 312 299 291
210 219 215 210 210 215 226 234 211 181 171 167 157 151 151 151 149 147 144 137 118 86 57 30 14 7 360 356 360 360 360 356 351 343 339 334 329 323 321 324 318 315 316
214 215 221 218 215 220 215 198 184 173 165 162 160 163 165 165 166 170 171 151 107 10 356 359 351 345 348 353 357 356 350 349 348 340 338 337 336 334 332 318 317 312 310
222 228 223 218 221 215 199 184 178 172 169 172 174 174 178 180 183 191 198 213 270 305 320 334 331 330 339 345 347 346 344 339 333 331 327 322 318 311 297 298 303 305 305
230 230 231 227 218 206 191 184 180 180 179 182 186 189 193 197 198 204 217 238 264 293 320 324 326 329 330 329 332 336 339 339 335 329 326 317 306 298 297 299 302 304 301
228 227 225 223 220 205 195 191 187 190 194 196 199 202 207 209 212 217 226 243 261 287 305 317 322 319 317 321 327 332 334 333 329 325 316 302 291 289 292 293 295 296 294
Height
1518 1517 1519 1521 1523 1524 1525 1527 1528 1530 1530 1531 1531 1532 1533 1536 1538 1539 1541 1541 1541 1541 1541 1541 1542 1543 1543 1543 1545 1545 1545 1546 1547 1548 1547 1546 1546 1545 1545 1546 1545 1544 1544
1513 1514 1515 1516 1518 1521 1522 1523 1524 1526 1527 1527 1529 1528 1529 1530 1531 1533 1534 1536 1537 1538 1537 1536 1536 1537 1538 1538 1539 1540 1540 1540 1542 1542 1542 1541 1540 1538 1537 1538 1539 1540 1540
1509 1510 1511 1512 1514 1516 1517 1518 1519 1520 1522 1522 1523 1523 1524 1523 1524 1526 1527 1529 1530 1531 1531 1531 1531 1531 1532 1532 1533 1534 1535 1535 1534 1535 1536 1535 1530 1530 1530 1529 1530 1532 1533
1507 1508 1508 1510 1511 1511 1512 1512 1513 1514 1516 1517 1517 1518 1519 1519 1519 1520 1521 1523 1523 1523 1524 1524 1525 1525 1525 1525 1526 1527 1527 1528 1527 1529 1529 1527 1525 1524 1523 1522 1522 1525 1527
1503 1505 1506 1508 1508 1509 1510 1510 1510 1510 1511 1511 1512 1513 1514 1514 1515 1516 1516 1516 1517 1518 1517 1518 1518 1519 1519 1519 1520 1521 1520 1520 1521 1519 1521 1521 1521 1520 1519 1517 1517 1518 1519
1502 1505 1507 1508 1508 1508 1508 1508 1508 1508 1508 1508 1508 1507 1508 1508 1509 1509 1510 1511 1512 1513 1512 1512 1512 1512 1513 1513 1513 1514 1515 1513 1513 1513 1513 1513 1513 1514 1513 1511 1511 1511 1510
1501 1504 1506 1507 1507 1507 1506 1506 1506 1505 1505 1505 1505 1505 1505 1504 1504 1504 1504 1505 1506 1506 1506 1507 1507 1507 1507 1507 1507 1507 1507 1507 1507 1506 1505 1505 1505 1504 1506 1507 1505 1504 1502
1499 1502 1504 1504 1504 1504 1504 1503 1502 1502 1502 1502 1502 1502 1501 1501 1501 1500 1500 1500 1501 1502 1502 1502 1502 1502 1502 1502 1501 1499 1501 1501 1502 1502 1501 1499 1498 1500 1499 1498 1500 1497 1495
1497 1500 1501 1502 1502 1501 1500 1500 1499 1499 1499 1498 1498 1498 1497 1497 1496 1496 1496 1496 1497 1498 1497 1497 1497 1498 1496 1496 1495 1494 1494 1495 1494 1494 1494 1492 1491 1492 1492 1491 1492 1491 1489
1495 1497 1499 1499 1499 1499 1498 1497 1496 1496 1495 1495 1495 1494 1493 1493 1493 1492 1492 1492 1492 1493 1493 1492 1491 1491 1491 1490 1489 1489 1488 1487 1487 1487 1488 1488 1487 1486 1486 1486 1485 1485 1485
1493 1495 1496 1497 1497 1497 1496 1495 1495 1494 1493 1493 1492 1491 1491 1491 1490 1489 1489 1488 1488 1488 1487 1487 1487 1486 1486 1484 1483 1481 1481 1481 1481 1482 1482 1482 1482 1482 1481 1481 1481 1479 1481
1491 1493 1494 1495 1495 1495 1495 1494 1493 1492 1491 1491 1490 1489 1488 1488 1488 1487 1486 1485 1484 1484 1483 1482 1482 1481 1481 1479 1478 1477 1477 1477 1477 1477 1476 1477 1477 1477 1476 1473 1477 1477 1478
1489 1491 1492 1493 1493 1493 1493 1493 1492 1490 1490 1489 1488 1487 1486 1486 1486 1484 1483 1481 1481 1480 1479 1479 1477 1477 1476 1475 1474 1474 1474 1474 1473 1473 1473 1473 1472 1472 1472 1468 1474 1475 1475
1487 1488 1490 1490 1491 1491 1490 1490 1489 1488 1487 1486 1486 1486 1484 1484 1484 1482 1481 1481 1480 1478 1477 1476 1475 1475 1473 1472 1471 1471 1471 1471 1471 1469 1469 1470 1470 1471 1470 1469 1472 1473 1474
1483 1485 1486 1487 1488 1488 1488 1488 1487 1485 1486 1485 1485 1484 1483 1482 1481 1480 1480 1480 1479 1478 1477 1477 1474 1473 1471 1472 1470 1471 1471 1470 1471 1470 1470 1470 1470 1470 1468 1469 1470 1471 1472
1480 1482 1483 1484 1485 1486 1486 1485 1483 1485 1484 1484 1483 1482 1481 1481 1480 1479 1479 1481 1480 1478 1477 1476 1474 1474 1474 1474 1472 1473 1473 1473 1473 1472 1471 1471 1471 1470 1470 1469 1470 1470 1470
1476 1478 1480 1481 1481 1483 1483 1482 1483 1483 1483 1482 1481 1480 1481 1480 1480 1480 1481 1481 1480 1478 1478 1477 1477 1476 1475 1475 1475 1475 1476 1476 1474 1473 1472 1472 1471 1470 1469 1468 1469 1469 1469
1473 1474 1475 1477 1479 1479 1480 1479 1481 1480 1481 1479 1479 1479 1478 1479 1481 1481 1481 1481 1481 1480 1480 1479 1478 1478 1477 1477 1476 1476 1477 1476 1475 1473 1472 1471 1470 1469 1469 1469 1469 1469 1468
1471 1471 1473 1474 1476 1476 1477 1477 1478 1477 1478 1478 1478 1477 1479 1480 1481 1482 1482 1483 1483 1482 1482 1480 1480 1479 1479 1479 1478 1477 1477 1476 1474 1473 1471 1471 1470 1469 1467 1467 1467 1466 1466
1467 1468 1470 1471 1473 1474 1474 1475 1475 1476 1476 1476 1477 1477 1480 1481 1482 1484 1484 1484 1484 1484 1482 1481 1481 1481 1480 1480 1478 1477 1476 1474 1472 1471 1470 1469 1468 1467 1465 1464 1464 1464 1464
1466 1467 1468 1470 1471 1472 1472 1473 1473 1473 1474 1475 1476 1478 1480 1482 1483 1484 1485 1485 1485 1484 1483 1482 1482 1481 1480 1479 1477 1477 1475 1473 1471 1470 1468 1467 1466 1465 1464 1462 1462 1461 1461
1463 1464 1466 1467 1468 1469 1469 1470 1471 1472 1473 1475 1477 1479 1482 1483 1484 1485 1486 1485 1484 1484 1483 1483 1482 1481 1480 1478 1477 1475 1473 1472 1470 1469 1467 1466 1465 1463 1462 1462 1461 1461 1460
1462 1462 1463 1464 1465 1466 1466 1467 1469 1471 1473 1476 1478 1480 1482 1483 1484 1485 1485 1484 1483 1484 1483 1482 1482 1481 1479 1478 1476 1474 1472 1470 1469 1467 1466 1464 1463 1462 1461 1461 1460 1460 1459
1458 1459 1460 1461 1462 1463 1465 1467 1468 1471 1473 1475 1477 1479 1481 1483 1483 1484 1484 1484 1484 1483 1483 1482 1481 1480 1478 1476 1474 1473 1471 1469 1467 1466 1464 1463 1462 1461 1461 1460 1459 1458 1457
1456 1457 1458 1459 1460 1461 1463 1465 1468 1470 1472 1474 1476 1478 1480 1481 1481 1482 1483 1483 1483 1483 1481 1481 1480 1478 1477 1475 1473 1471 1469 1468 1466 1464 1462 1461 1461 1460 1459 1458 1457 1456 1455
1453 1454 1455 1456 1457 1459 1461 1463 1466 1468 1471 1473 1475 1477 1478 1479 1479 1480 1481 1481 1481 1480 1480 1479 1478 1477 1475 1473 1471 1469 1467 1466 1464 1462 1461 1460 1459 1458 1457 1456 1455 1454 1452